• In Denmark
  • List of Countries
  • For 7 days
  • Water Temperature
  • Satellite Maps
  • Weather Map
  • Weather Widgets
  • user-avatar
    Login

    Hourly Weather Darwin

    Today, 16 December, Saturday

    Time Temperature Precipitation Wind Pressure Humidity
    00:00 +31°C° 0.1 mm 1 mps 756 mmHg 69%
    01:00 +31°C° 0.1 mm 1 mps 756 mmHg 70%
    02:00 +31°C° 0.1 mm 1 mps 755 mmHg 70%
    03:00 +28°C° 0 mm 0 mps 755 mmHg 70%
    04:00 +28°C° 0 mm 0 mps 756 mmHg 71%
    05:00 +30°C° 0 mm 1 mps 756 mmHg 72%
    06:00 +30°C° 0 mm 1 mps 756 mmHg 72%
    07:00 +32°C° 0 mm 1 mps 756 mmHg 65%
    08:00 +34°C° 0 mm 1 mps 757 mmHg 59%
    09:00 +36°C° 0 mm 1 mps 757 mmHg 52%
    10:00 +37°C° 0 mm 1 mps 757 mmHg 48%
    11:00 +39°C° 0 mm 2 mps 756 mmHg 44%
    12:00 +40°C° 0 mm 2 mps 756 mmHg 41%
    13:00 +39°C° 0 mm 3 mps 755 mmHg 44%
    14:00 +38°C° 0 mm 3 mps 755 mmHg 48%
    15:00 +37°C° 0 mm 4 mps 754 mmHg 51%
    16:00 +36°C° 0 mm 3 mps 754 mmHg 53%
    17:00 +36°C° 0 mm 3 mps 754 mmHg 55%
    18:00 +35°C° 0 mm 3 mps 754 mmHg 57%
    19:00 +34°C° 1.7 mm 3 mps 754 mmHg 65%
    20:00 +31°C° 1.7 mm 2 mps 755 mmHg 73%
    21:00 +30°C° 1.7 mm 2 mps 755 mmHg 81%
    22:00 +30°C° 0.9 mm 2 mps 755 mmHg 82%
    23:00 +30°C° 0.9 mm 3 mps 756 mmHg 82%

    Tomorrow, 17 December, Sunday

    Time Temperature Precipitation Wind Pressure Humidity
    00:00 +29°C° 0.9 mm 3 mps 756 mmHg 83%
    01:00 +29°C° 0.1 mm 3 mps 756 mmHg 83%
    02:00 +29°C° 0.1 mm 3 mps 755 mmHg 82%
    03:00 +29°C° 0.1 mm 3 mps 755 mmHg 82%
    04:00 +29°C° 0 mm 3 mps 755 mmHg 82%
    05:00 +29°C° 0 mm 3 mps 755 mmHg 83%
    06:00 +29°C° 0 mm 2 mps 755 mmHg 83%
    07:00 +31°C° 0 mm 2 mps 756 mmHg 75%
    08:00 +32°C° 0 mm 2 mps 756 mmHg 68%
    09:00 +35°C° 0 mm 2 mps 756 mmHg 61%
    10:00 +36°C° 0 mm 2 mps 756 mmHg 55%
    11:00 +38°C° 0 mm 2 mps 756 mmHg 49%
    12:00 +40°C° 0 mm 2 mps 756 mmHg 43%
    13:00 +39°C° 0.1 mm 3 mps 755 mmHg 47%
    14:00 +38°C° 0.1 mm 4 mps 754 mmHg 51%
    15:00 +37°C° 0.1 mm 4 mps 754 mmHg 55%
    16:00 +36°C° 0.4 mm 4 mps 753 mmHg 58%
    17:00 +35°C° 0.4 mm 4 mps 753 mmHg 62%
    18:00 +34°C° 0.4 mm 4 mps 753 mmHg 66%
    19:00 +33°C° 1.5 mm 4 mps 754 mmHg 71%
    20:00 +32°C° 1.5 mm 4 mps 754 mmHg 76%
    21:00 +30°C° 1.5 mm 3 mps 755 mmHg 81%
    22:00 +30°C° 4.6 mm 3 mps 755 mmHg 84%
    23:00 +29°C° 4.6 mm 2 mps 755 mmHg 87%

    Day after tomorrow, 18 December, Monday

    Time Temperature Precipitation Wind Pressure Humidity
    00:00 +29°C° 4.6 mm 2 mps 755 mmHg 89%
    01:00 +28°C° 7.6 mm 2 mps 755 mmHg 91%
    02:00 +28°C° 7.6 mm 3 mps 755 mmHg 92%
    03:00 +28°C° 7.6 mm 3 mps 755 mmHg 93%
    04:00 +28°C° 0.6 mm 3 mps 755 mmHg 93%
    05:00 +28°C° 0.6 mm 2 mps 755 mmHg 92%
    06:00 +28°C° 0.6 mm 1 mps 755 mmHg 92%
    07:00 +29°C° 0 mm 2 mps 755 mmHg 85%
    08:00 +31°C° 0 mm 2 mps 756 mmHg 79%
    09:00 +32°C° 0 mm 2 mps 756 mmHg 72%
    10:00 +34°C° 0.1 mm 2 mps 755 mmHg 68%
    11:00 +35°C° 0.1 mm 2 mps 755 mmHg 63%
    12:00 +36°C° 0.1 mm 2 mps 755 mmHg 59%
    13:00 +36°C° 0.4 mm 3 mps 754 mmHg 60%
    14:00 +36°C° 0.4 mm 3 mps 754 mmHg 61%
    15:00 +36°C° 0.4 mm 3 mps 753 mmHg 62%
    16:00 +35°C° 0.2 mm 3 mps 753 mmHg 65%
    17:00 +34°C° 0.2 mm 3 mps 753 mmHg 69%
    18:00 +32°C° 0.2 mm 2 mps 753 mmHg 72%
    19:00 +32°C° 0.2 mm 2 mps 754 mmHg 75%
    20:00 +31°C° 0.2 mm 2 mps 754 mmHg 78%
    21:00 +30°C° 0.2 mm 2 mps 755 mmHg 81%
    22:00 +30°C° 0 mm 2 mps 755 mmHg 81%
    23:00 +30°C° 0 mm 2 mps 755 mmHg 81%

    19 December, Tuesday

    Time Temperature Precipitation Wind Pressure Humidity
    00:00 +30°C° 0 mm 2 mps 755 mmHg 81%
    01:00 +29°C° 0.6 mm 2 mps 754 mmHg 83%
    02:00 +29°C° 0.6 mm 2 mps 754 mmHg 84%
    03:00 +29°C° 0.6 mm 2 mps 754 mmHg 85%
    04:00 +29°C° 0.4 mm 2 mps 754 mmHg 86%
    05:00 +29°C° 0.4 mm 2 mps 754 mmHg 86%
    06:00 +29°C° 0.4 mm 2 mps 755 mmHg 86%
    07:00 +30°C° 1 mm 2 mps 755 mmHg 81%
    08:00 +31°C° 1 mm 3 mps 755 mmHg 76%
    09:00 +33°C° 1 mm 3 mps 756 mmHg 70%
    10:00 +34°C° 0 mm 3 mps 755 mmHg 65%
    11:00 +36°C° 0 mm 3 mps 755 mmHg 59%
    12:00 +37°C° 0 mm 3 mps 755 mmHg 54%
    13:00 +37°C° 0 mm 3 mps 754 mmHg 53%
    14:00 +37°C° 0 mm 3 mps 753 mmHg 52%
    15:00 +37°C° 0 mm 3 mps 753 mmHg 51%
    16:00 +36°C° 0 mm 2 mps 753 mmHg 54%
    17:00 +35°C° 0 mm 2 mps 753 mmHg 58%
    18:00 +34°C° 0 mm 2 mps 753 mmHg 61%
    19:00 +34°C° 0 mm 2 mps 754 mmHg 65%
    20:00 +32°C° 0 mm 2 mps 754 mmHg 68%
    21:00 +31°C° 0 mm 2 mps 755 mmHg 71%
    22:00 +31°C° 0.1 mm 3 mps 755 mmHg 74%
    23:00 +30°C° 0.1 mm 3 mps 755 mmHg 76%

    20 December, Wednesday

    Time Temperature Precipitation Wind Pressure Humidity
    00:00 +30°C° 0.1 mm 4 mps 755 mmHg 79%
    01:00 +30°C° 0.3 mm 3 mps 755 mmHg 81%
    02:00 +30°C° 0.3 mm 3 mps 754 mmHg 83%
    03:00 +29°C° 0.3 mm 3 mps 754 mmHg 85%
    04:00 +29°C° 0.4 mm 3 mps 754 mmHg 85%
    05:00 +29°C° 0.4 mm 2 mps 754 mmHg 85%
    06:00 +29°C° 0.4 mm 2 mps 755 mmHg 85%
    07:00 +30°C° 0 mm 2 mps 755 mmHg 79%
    08:00 +32°C° 0 mm 2 mps 755 mmHg 73%
    09:00 +34°C° 0 mm 3 mps 756 mmHg 67%
    10:00 +35°C° 0 mm 2 mps 755 mmHg 62%
    11:00 +36°C° 0 mm 2 mps 755 mmHg 57%
    12:00 +38°C° 0 mm 2 mps 755 mmHg 52%
    13:00 +37°C° 0.4 mm 2 mps 754 mmHg 52%
    14:00 +37°C° 0.4 mm 3 mps 754 mmHg 53%
    15:00 +37°C° 0.4 mm 3 mps 753 mmHg 54%
    16:00 +36°C° 0.6 mm 3 mps 753 mmHg 59%
    17:00 +35°C° 0.6 mm 3 mps 754 mmHg 64%
    18:00 +34°C° 0.6 mm 3 mps 754 mmHg 69%
    19:00 +33°C° 0 mm 3 mps 754 mmHg 72%
    20:00 +31°C° 0 mm 3 mps 755 mmHg 75%
    21:00 +30°C° 0 mm 4 mps 755 mmHg 77%
    22:00 +30°C° 0.4 mm 3 mps 755 mmHg 78%
    23:00 +30°C° 0.4 mm 2 mps 755 mmHg 79%

    21 December, Thursday

    Time Temperature Precipitation Wind Pressure Humidity
    00:00 +30°C° 0.4 mm 2 mps 755 mmHg 80%
    01:00 +30°C° 0.9 mm 2 mps 755 mmHg 80%
    02:00 +30°C° 0.9 mm 3 mps 754 mmHg 81%
    03:00 +30°C° 0.9 mm 3 mps 754 mmHg 81%
    04:00 +29°C° 0 mm 3 mps 754 mmHg 81%
    05:00 +29°C° 0 mm 3 mps 754 mmHg 81%
    06:00 +29°C° 0 mm 3 mps 754 mmHg 82%
    07:00 +30°C° 0.2 mm 3 mps 755 mmHg 78%
    08:00 +31°C° 0.2 mm 2 mps 755 mmHg 74%
    09:00 +32°C° 0.2 mm 2 mps 756 mmHg 70%
    10:00 +34°C° 0.4 mm 2 mps 756 mmHg 64%
    11:00 +36°C° 0.4 mm 2 mps 755 mmHg 59%
    12:00 +37°C° 0.4 mm 3 mps 755 mmHg 54%
    13:00 +38°C° 0.1 mm 2 mps 754 mmHg 51%
    14:00 +39°C° 0.1 mm 2 mps 754 mmHg 47%
    15:00 +40°C° 0.1 mm 2 mps 753 mmHg 43%
    16:00 +38°C° 0 mm 2 mps 753 mmHg 48%
    17:00 +37°C° 0 mm 2 mps 753 mmHg 53%
    18:00 +35°C° 0 mm 3 mps 753 mmHg 58%
    19:00 +34°C° 0.3 mm 2 mps 754 mmHg 64%
    20:00 +32°C° 0.3 mm 2 mps 754 mmHg 70%
    21:00 +31°C° 0.3 mm 2 mps 754 mmHg 77%
    22:00 +30°C° 0.8 mm 2 mps 754 mmHg 78%
    23:00 +30°C° 0.8 mm 2 mps 754 mmHg 80%
    Show more